Location: Newark
(35.6000°N, 117.0333°E)
Time: 09:26:51
(UTC+00:00)

Hubble Space Telescope - Pass Details

Date: 24 August 2019
Orbit: 536 x 540 km, 28.5° (Epoch: 17 September)

Event Time Altitude Azimuth Distance (km) Brightness Sun altitude
Rises 11:25:33 0° 257° (WSW) 2,668 5.4 -7.6°
Reaches altitude 10° 11:28:48 10° 230° (SW) 1,776 3.8 -8.2°
Maximum altitude 11:30:49 13° 200° (SSW) 1,570 3.2 -8.6°
Drops below altitude 10° 11:32:50 10° 171° (S) 1,773 3.1 -9.0°
Enters shadow 11:34:34 - 153° (SSE) 2,194 3.4 -9.3°
